Location: Oberwangen
(47.4286°N, 8.9679°E)
Time: 23:42:40
(UTC+00:00)

Cosmos 2297 - Pass Details

Date: 20 June 2021
Orbit: 836 x 858 km, 71.0° (Epoch: 23 July)

Event Time Altitude Azimuth Distance (km) Brightness Sun altitude
Rises 22:55:30 0° 332° (NNW) 3,399 8.1 -18.8°
Reaches altitude 10° 22:57:56 10° 333° (NNW) 2,463 7.2 -18.9°
Maximum altitude 23:03:36 88° 63° (ENE) 848 3.6 -19.0°
Enters shadow 23:06:22 32° 152° (SSE) 1,410 4.4 -19.0°
